Regional Weather Roundup
Issued by NWS

Home | Current Version | Previous Version | Graphics & Text | Print | Product List | Glossary On
Versions: 1 2 3 4 5 6 7 8 9 10 11 12 13 14 15 16 17 18 19 20 21 22 23 24 25 26 27 28 29 30 31 32 33 34 35 36 37 38 39 40 41 42 43 44 45 46 47 48 49 50
783
ASUS43 KLOT 222003
RWRIL

ILLINOIS REGIONAL WEATHER ROUNDUP
NATIONAL WEATHER SERVICE CHICAGO/ROMEOVILLE IL
200 PM CST WED NOV 22 2017

NOTE: "FAIR" INDICATES FEW OR NO CLOUDS BELOW 12,000 FEET WITH NO
SIGNIFICANT WEATHER AND/OR OBSTRUCTIONS TO VISIBILITY.

* THESE STATIONS ARE NOT UNDER NWS QUALITY CONTROL. THEY ALSO MAY NOT
  REPORT WEATHER SUCH AS PRECIPITATION OR FOG.

ILZ001-002-007-009-015-016-024-222100-
NORTHWEST ILLINOIS

CITY           SKY/WX    TMP DP  RH WIND       PRES   REMARKS
MOLINE         SUNNY     36  15  42 SW7       30.28F WCI  30
STERLING*      SUNNY     34  17  50 W8        30.30  WCI  27
SAVANNA*       CLOUDY    33  15  48 SW7       30.28F WCI  27
$$

ILZ003-004-008-010-011-017-018-222100-
NORTH CENTRAL ILLINOIS

CITY           SKY/WX    TMP DP  RH WIND       PRES   REMARKS
ROCKFORD       MOSUNNY   33  14  45 SW10      30.30F WCI  25
FREEPORT*      SUNNY     32  15  49 SW9       30.29F WCI  24
ROCHELLE*      SUNNY     32  17  55 SW12      30.29F WCI  23
DE KALB*       SUNNY     32  17  54 SW8       30.27F WCI  25
PERU*          SUNNY     33  14  46 CALM      30.30F
$$

ILZ005-006-012>014-019>023-222100-
NORTHEAST ILLINOIS

CITY           SKY/WX    TMP DP  RH WIND       PRES   REMARKS
CHICAGO-OHARE  MOSUNNY   34  15  46 W8        30.26F WCI  27
CHICAGO-MIDWAY NOT AVBL
AURORA         SUNNY     33  17  51 SW7       30.28F WCI  27
LANSING*       SUNNY     34  17  50 W7        30.28F WCI  28
JOLIET*        SUNNY     35  17  49 W6        30.30F WCI  29
WAUKEGAN       SUNNY     34  15  46 SW10      30.25F WCI  26
DUPAGE AIRPORT SUNNY     33  17  51 W9        30.26F WCI  25
KANKAKEE*      SUNNY     34  16  48 NW7       30.30F WCI  28
WHEELING       SUNNY     34  13  41 W8        30.28F WCI  27
MORRIS*        SUNNY     33  17  50 W8        30.29F WCI  26
ROMEOVILLE*    SUNNY     33  17  52 W7        30.28F WCI  27
NORTHERLY ISL    N/A     34  12  40 W5          N/A  WCI  30
$$

LMZ740>746-222100-
SOUTHERN LAKE MICHIGAN

STATION/POSITION SKY/WX   TEMP    WIND        PRES    VSBY  WAVE
                          AIR SEA DIR/SP/G                  HT/PER
                          (F)     (DEG/KT/KT) (MB)    (MI)  (FT/S)
SOUTHERN BUOY              31 47  280/  8/ 12 1026.9          2/ 6
HARRISON CRIB              33     270/  6/  7   N/A
BURNHAM HARBOR             35     290/  7/ 11   N/A
CALUMET HARBOR             33     290/  5/  7 1024.9F
BURNS HARBOR               33     300/  7/ 11 1026.1F
MICHIGAN CITY              32     240/  7/  9   N/A
$$

ILZ025>027-034>036-040-047-049-050-058-095>099-222100-
WEST-CENTRAL ILLINOIS

CITY           SKY/WX    TMP DP  RH WIND       PRES   REMARKS
QUINCY         SUNNY     36  15  42 CALM      30.31F
GALESBURG*     SUNNY     36  18  48 SW5       30.30F WCI  32
MACOMB*        SUNNY     36  17  46 W3        30.32F
JACKSONVILLE*  SUNNY     35  16  45 NW7       30.31F WCI  29
PITTSFIELD*    SUNNY     37  18  45 CALM      30.32F
$$

ILZ028>032-037-038-041>044-048-051>054-059>061-222100-
CENTRAL ILLINOIS

CITY           SKY/WX    TMP DP  RH WIND       PRES   REMARKS
PONTIAC        SUNNY     35  17  49 NW8       30.31F WCI  28
BLOOMINGTON    SUNNY     35  14  42 VRB5      30.31F WCI  31
DECATUR        SUNNY     36  17  46 NW8       30.30F WCI  30
PEORIA         SUNNY     36  15  42 VRB5      30.31F WCI  32
LACON*         SUNNY     34  16  46 NW5       30.31F WCI  30
LINCOLN*       SUNNY     36  20  51 N5        30.32S WCI  32
SPRINGFIELD    SUNNY     38  16  40 W6        30.32F WCI  33
TAYLORVILLE    SUNNY     36  18  48 NE5       30.32F WCI  32
$$

ILZ033-039-045-046-055>057-062-063-222100-
EAST-CENTRAL ILLINOIS

CITY           SKY/WX    TMP DP  RH WIND       PRES   REMARKS
CHAMPAIGN      SUNNY     37  17  44 NW6       30.30F WCI  32
DANVILLE*      SUNNY     35  19  51 CALM      30.27F
RANTOUL*       SUNNY     37  20  51 NW5       30.30F WCI  33
MATTOON        SUNNY     36  18  48 NW7       30.30F WCI  30
PARIS*         SUNNY     36  24  61 W3        30.31F
$$

ILZ079-100>102-222100-
SOUTHWEST ILLINOIS

CITY           SKY/WX    TMP DP  RH WIND       PRES   REMARKS
ALTON          SUNNY     37  19  48 NW7       30.32F WCI  32
BELLEVILLE     SUNNY     40  17  39 N6        30.30F
CAHOKIA*       SUNNY     39  16  39 N3        30.32F
SPARTA*        SUNNY     37  21  54 N5        30.33F WCI  33
$$

ILZ064>066-069>071-074>076-080>082-084>086-088>090-092>094-222100-
SOUTH-CENTRAL ILLINOIS

CITY           SKY/WX    TMP DP  RH WIND       PRES   REMARKS
CARBONDALE     SUNNY     40  21  46 N8        30.31F
CAIRO*         SUNNY     42  22  43 N7        30.29F
EFFINGHAM*     SUNNY     38  21  51 N3        30.33F
MARION         SUNNY     41  19  42 N12       30.31F
MT. VERNON     SUNNY     39  19  44 VRB5      30.31F
CENTRALIA*     SUNNY     39  24  55 NW12      30.32S WCI  32
SALEM*         SUNNY     39  19  43 N8        30.32S WCI  34
METROPOLIS*    SUNNY     44  21  40 CALM      30.29F
$$

ILZ067-068-072-073-078-083-087-091-222100-
SOUTHEAST ILLINOIS

CITY           SKY/WX    TMP DP  RH WIND       PRES   REMARKS
LAWRENCEVILLE  SUNNY     40  22  48 NW5       30.31F
FLORA*         SUNNY     40  21  47 N7        30.32F
FAIRFIELD*     SUNNY     38  20  47 CALM      30.30F
HARRISBURG*    SUNNY     39  22  49 N7        30.31F WCI  34
ROBINSON*      SUNNY     37  20  51 NW3       30.33S
CARMI*         SUNNY     40  21  47 N10       30.30F
$$

ABBREVIATIONS USED IN REMARKS
   TC - TEMPERATURE IN CELSIUS
  WCI - WIND CHILL INDEX
   HX - HEAT INDEX
  VSB - VISIBILITY
$$





USA.gov is the U.S. government's official web portal to all federal, state and local government web resources and services.